SCP
0 0 0 0 -0 0 -0 0 0 0 0 0 0 0 0 0 0 0 0 0 0 0 0 0 0 0 0 0 0 0 0 0 0 0 0 0 0 0 0 0 0 0 0 0 0
0 0 0 -0 -0 0 0 0 0 0 0 0 0 0 0 0 0 0 0 0 0 0 0 0 0 0 0 0 0 0 0 0 0 0 0 0 0 0 0 0 0 0 0 0 0
0 0 0 0 0 0 0 0 0 0 0 0 0 0 0 0 -0 0 0 0 0 0 0 0 0 0 0 0 0 0 0 0 0 0 0 0 0 0 0 0 0 0 0 0 0
0 0 0 0 -0 -0 0 0 0 0 0 0 0 0 0 0 0 0 0 0 0 0 0 0 0 0 0 0 0 0 0 0 0 0 0 0 0 0 0 0 0 0 0 0 0
0 0 0 0 0 0 0 0 0 0 0 0 0 0 0 0 0 0 0 0 0 0 0 0 0 0 0 0 0 0 0 0 0 0 0 0 0 0 0 0 0 0 0 0 0
0 -0 0 0 0 0 0 0 0 0 0 0 0 0 0 0 0 0 0 0 0 0 0 0 0 0 0 0 0 0 0 0 0 0 0 0 0 0 0 0 0 0 0 0 0
0 0 0 0 0 0 0 0 0 0 0 0 0 0 0 0 0 0 0 0 0 0 0 0 0 0 0 0 0 0 0 0 0 0 0 0 0 0 0 0 0 0 0 0 0
-0 0 0 0 0 0 0 0 0 0 0 0 0 0 0 0 0 0 0 0 0 0 0 0 0 0 0 0 0 0 0 0 0 0 0 0 0 0 0 0 -0 0 0 0 0
0 0 0 0 0 0 0 0 0 0 0 0 0 0 0 0 0 0 0 0 0 0 0 0 0 0 0 0 0 0 0 0 0 0 0 -0 0 0 0 0 0 0 0 0 -0
0 0 0 0 0 0 -0 0 0 0 0 0 0 0 0 0 0 0 0 0 0 0 0 0 0 0 0 0 0 0 0 0 0 0 0 -0 0 0 0 0 -0 0 0 0 -0
0 -0 0 0 0 0 0 0 0 0 0 0 0 0 0 0 0 0 0 0 0 0 0 0 0 0 0 -0 -0 0 -0 -0 -0 -0 0 0 0 0 0 0 0 0 0 0 -0
0 0 0 0 0 0 0 0 0 0 0 0 0 0 0 0 0 0 0 0 0 0 0 0 -0 -0 0 0 0 0 0 -0 0 0 0 0 0 0 0 0 0 0 0 0 0
0 0 0 0 0 0 0 0 0 0 0 0 0 0 0 0 0 0 0 0 0 0 0 0 0 -0 0 0 0 0 -0 -0 -0 -0 -0 0 0 0 0 0 0 0 0 0 0
-0 0 0 0 0 0 0 0 0 0 0 0 0 0 0 0 0 0 0 0 0 0 -0 0 0 -0 0 -0 0 -0 0 -0 -0 0 0 0 0 0 0 -0 -0 0 0 0 0
0 0 0 0 0 0 0 0 0 0 0 0 0 0 0 0 0 0 0 0 0 0 0 0 -0 0 0 -0 0 0 0 0 0 0 -0 0 0 -0 0 0 0 0 0 0 -0
0 0 0 0 0 0 0 0 0 0 0 0 0 0 0 0 0 -0 0 0 0 0 0 -0 0 0 0 0 0 0 0 0 0 0 0 0 0 0 0 -0 0 0 0 0 -0
0 0 0 0 0 0 0 0 0 0 0 0 0 0 -0 0 0 -0 -0 -0 -0 -0 -0 -0 0 0 0 0 0 0 0 0 0 0 0 0 0 0 0 0 -0 0 0 0 -0
0 0 0 0 0 0 0 0 0 0 0 0 0 -0 0 -0 -0 -0 -0 -0 -0 -0 0 0 0 0 0 0 0 0 0 0 0 0 0 0 0 0 0 0 0 0 0 0 0
0 0 0 0 0 0 0 0 0 0 0 0 0 0 0 -0 -0 0 -0 -0 -0 0 -0 0 0 0 0 0 0 0 0 0 0 0 0 0 0 0 0 -0 -0 0 0 0 0
0 0 0 0 0 0 0 0 0 0 0 0 0 0 -0 -0 -0 0 -0 -0 0 -0 -0 0 0 0 0 0 0 0 0 0 0 0 0 0 0 0 0 -0 0 0 0 0 0
0 0 0 0 0 0 0 0 0 0 0 0 0 -0 -0 -0 0 -0 -0 -0 0 0 0 0 0 0 0 0 0 0 0 0 0 0 0 0 0 -0 0 0 0 0 0 0 0
0 0 0 0 0 0 0 0 0 0 0 -0 -0 -0 -0 -0 0 -0 0 0 0 0 0 0 0 0 0 0 0 0 0 0 0 0 0 0 0 -0 0 -0 0 0 0 0 0
0 0 0 0 0 0 0 0 0 0 0 0 -0 -0 -0 0 0 0 0 0 0 0 0 0 0 0 0 0 0 0 0 0 0 0 -0 -0 0 0 -0 0 0 0 0 0 0
0 0 0 0 0 0 0 0 0 0 -0 -0 -0 0 -0 0 -0 -0 0 0 0 0 0 0 0 0 0 0 0 0 0 0 0 0 0 0 0 -0 -0 0 0 0 0 0 0
0 0 0 0 0 0 0 0 0 0 -0 -0 -0 0 0 -0 0 0 -0 -0 -0 0 -0 0 0 0 0 0 0 0 0 0 -0 0 0 0 -0 0 0 0 0 0 0 0 0
0 0 0 0 0 0 0 0 0 0 0 -0 0 0 -0 -0 0 -0 -0 0 -0 0 -0 -0 0 0 0 0 0 0 0 0 0 0 0 0 0 0 0 0 0 0 0 0 0
0 0 0 0 0 0 0 0 0 0 -0 -0 -0 -0 -0 -0 -0 -0 -0 -0 -0 0 0 -0 -0 0 0 0 0 0 0 0 0 0 0 0 0 0 0 0 0 0 0 0 0
Wind_Speed_500mb
17 17 13 14 21 24 28 28 20 23 23 34 34 35 42 48 45 24 13 15 11 13 17 20 16 18 11 10 13 15 16 30 45 43 41 35 40 29 27 18 36 59 61 21 3
18 16 13 12 17 25 28 28 25 19 22 26 31 37 39 42 42 9 6 7 15 19 15 20 20 23 11 10 9 21 24 28 27 34 27 34 20 25 24 26 35 41 25 12 7
21 26 13 16 20 23 27 29 25 22 22 25 26 33 37 40 28 1 8 16 14 18 16 17 18 22 17 14 20 15 35 33 29 26 22 31 33 28 32 32 43 32 36 16 18
24 23 18 23 26 28 29 25 23 23 23 24 29 34 38 31 12 6 26 30 25 21 18 21 24 26 21 18 15 23 36 37 38 39 35 34 39 43 46 42 44 24 31 32 30
26 18 23 25 20 19 22 23 23 24 25 28 33 36 30 21 22 17 17 23 25 22 21 23 26 24 22 20 25 33 38 45 41 42 45 49 53 51 68 54 47 46 44 45 44
27 26 21 17 22 27 30 30 30 29 29 31 32 34 16 29 18 22 32 29 22 23 20 18 14 16 25 33 29 35 37 44 47 51 47 42 50 47 63 50 60 63 60 49 44
27 18 14 22 32 33 31 32 32 33 32 34 32 24 21 30 25 21 17 18 20 19 19 17 20 20 18 26 22 28 34 38 45 46 44 39 45 58 64 64 66 65 62 57 53
20 16 21 31 34 36 35 34 32 32 33 32 26 12 15 24 17 12 21 26 21 20 24 25 23 28 35 30 40 37 31 33 17 9 18 16 42 36 39 42 57 58 57 62 62
14 19 28 38 42 41 36 30 26 28 25 16 6 5 10 19 12 23 32 22 23 21 18 20 17 28 13 20 24 20 26 32 35 29 23 26 40 26 22 36 43 47 48 47 47
21 27 35 41 35 23 19 22 23 14 17 11 10 5 3 22 28 39 27 20 16 18 19 17 13 8 8 16 22 26 21 30 33 21 16 34 54 42 48 42 38 41 45 45 47
26 34 29 16 15 16 19 12 10 3 11 4 13 12 20 31 31 16 20 15 13 15 9 14 11 26 35 37 45 44 46 52 41 37 32 44 51 50 52 54 53 52 51 51 50
27 14 16 12 13 16 14 7 6 7 12 10 11 15 17 26 24 20 15 8 4 16 15 11 31 43 41 39 38 43 47 53 49 43 37 43 53 49 48 51 63 59 55 55 50
11 11 13 11 13 12 9 9 10 12 9 4 10 10 14 26 20 16 8 9 12 18 21 30 41 47 37 40 40 41 44 49 49 46 29 29 52 54 61 60 68 73 65 59 54
8 7 8 8 8 11 8 14 15 7 4 12 4 4 15 28 11 21 11 12 6 13 15 27 33 27 31 39 38 44 46 50 49 34 27 30 24 33 32 36 47 66 61 62 56
6 2 4 5 6 6 13 17 14 4 6 20 9 17 37 8 25 1 9 13 26 25 5 24 39 38 35 46 37 30 30 32 28 26 29 38 24 50 31 42 45 43 61 59 54
7 5 4 4 8 11 16 16 4 2 6 9 12 20 24 7 16 18 14 14 30 23 31 43 49 38 34 37 23 24 11 9 11 9 18 28 26 34 18 36 37 40 55 55 51
7 6 6 4 7 12 16 6 3 7 3 16 12 21 25 13 21 17 25 18 12 18 26 42 11 12 16 19 19 16 6 7 10 13 14 5 14 30 17 33 42 40 41 50 46
11 10 6 4 7 12 12 3 6 2 7 11 13 28 7 21 9 27 22 16 15 21 29 20 15 3 5 9 16 25 10 9 11 7 13 5 13 5 18 41 41 51 25 38 36
14 10 5 3 6 11 3 4 4 1 6 14 18 8 7 10 13 15 13 14 16 18 16 14 11 20 20 9 9 13 9 15 11 14 18 15 6 7 32 32 34 38 36 23 31
17 11 3 5 5 5 2 5 1 3 6 6 9 7 9 19 18 22 15 8 18 21 23 8 20 8 16 8 10 8 16 11 9 9 12 5 9 21 36 33 11 21 29 37 36
18 6 3 4 3 2 3 4 4 7 6 4 6 7 10 12 16 13 13 14 14 28 28 14 8 24 26 15 29 31 11 11 8 8 8 8 8 23 30 28 20 18 34 38 38
17 3 3 4 3 4 4 5 3 3 7 7 6 8 8 11 11 9 9 9 16 27 24 5 9 21 28 19 31 30 30 6 7 9 8 3 9 31 25 30 24 35 35 42 45
19 8 5 9 3 4 4 2 2 6 8 4 6 7 12 8 10 14 11 14 20 20 22 16 11 14 12 21 33 44 49 38 15 6 32 9 11 27 30 31 47 35 36 44 48
16 5 4 6 8 8 8 5 4 10 9 5 8 7 12 5 9 13 14 13 33 11 29 11 6 9 16 19 26 45 51 48 32 13 15 21 24 35 34 33 32 40 47 55 62
14 7 11 7 6 10 5 12 6 7 12 8 6 12 3 6 7 7 14 23 17 17 23 10 7 10 9 7 27 35 44 45 41 31 18 20 26 31 31 28 36 45 48 60 67
17 13 10 7 19 18 4 12 12 6 10 7 9 7 11 8 6 17 20 11 8 22 15 18 6 8 6 9 5 36 44 39 37 31 24 26 22 22 34 47 49 48 49 57 55
25 23 11 16 14 7 7 11 13 9 13 11 9 9 13 18 20 27 33 40 37 17 12 14 12 10 7 16 12 18 32 30 26 38 23 22 12 19 32 39 51 49 55 56 58
Wind_Direction_500mb
312 316 327 344 348 336 341 340 332 332 343 344 345 346 346 340 344 343 349 307 343 344 1 337 332 333 311 273 258 252 249 248 252 256 259 262 267 236 252 284 257 246 248 242 21
358 338 331 328 340 325 330 332 333 333 342 335 334 339 340 342 340 9 21 31 20 16 359 356 350 347 298 264 247 236 242 261 284 285 290 292 300 296 272 261 242 252 227 191 339
336 342 331 331 326 317 319 317 322 325 329 328 334 330 332 335 326 33 322 308 338 3 352 350 340 338 298 278 245 253 250 282 301 287 310 294 288 272 263 255 249 237 232 261 304
318 329 322 315 316 315 315 323 327 328 326 327 331 321 326 334 330 293 307 312 306 324 325 320 320 313 298 275 264 272 265 267 277 277 288 279 286 276 270 263 262 277 282 284 286
308 310 315 321 329 326 330 334 332 330 328 323 324 315 328 307 300 298 327 318 318 310 299 307 307 303 269 288 285 268 267 272 274 268 270 274 270 273 267 260 260 263 269 274 280
299 299 307 316 320 324 318 317 317 316 312 309 310 314 307 295 277 302 308 304 300 297 296 292 286 292 284 273 270 287 291 285 278 272 263 265 268 263 255 259 257 258 257 260 260
305 309 297 314 317 313 312 311 308 307 306 305 306 304 288 277 301 303 317 319 311 298 290 280 280 269 290 282 280 284 282 281 267 259 253 255 268 255 263 257 256 254 252 252 255
285 292 303 312 313 312 311 311 306 302 306 308 303 278 272 290 306 301 317 308 299 292 276 278 267 266 265 267 277 273 281 274 269 318 241 207 260 267 263 235 242 246 252 251 247
309 302 302 303 307 307 311 312 309 310 314 332 358 210 294 326 331 298 305 292 297 290 276 264 251 252 253 249 269 233 266 270 280 254 241 214 270 269 265 250 248 244 250 252 247
313 295 299 305 314 322 333 330 318 333 354 28 37 308 297 316 307 314 308 291 282 282 275 227 226 240 212 234 253 266 249 257 266 271 237 244 256 266 270 260 250 251 255 255 253
302 303 310 334 352 348 351 357 329 293 6 8 317 284 306 314 323 314 308 301 272 255 248 230 244 238 243 233 253 272 278 280 277 281 267 257 261 266 270 268 259 253 251 253 250
305 341 350 356 352 351 6 61 38 327 310 333 343 309 306 327 313 328 311 265 216 256 283 244 246 257 268 272 267 253 260 262 275 268 260 263 265 273 273 270 261 257 250 250 251
340 345 347 348 346 351 12 25 356 344 271 311 328 318 316 324 311 305 278 273 242 273 258 256 268 303 272 271 266 253 253 264 265 277 262 261 267 258 261 256 254 252 249 248 249
299 307 329 340 348 331 329 344 344 355 291 7 335 317 328 318 276 282 266 268 246 281 289 267 267 272 279 270 265 267 255 263 263 263 262 192 276 262 267 252 239 246 242 239 241
264 271 321 335 300 327 316 333 342 59 279 347 335 325 329 274 315 97 289 269 272 270 212 265 298 296 285 280 289 279 286 275 271 267 276 251 264 276 268 260 253 242 236 235 233
236 230 244 295 309 319 328 335 14 247 343 350 321 335 352 302 324 299 306 253 274 285 264 262 272 280 278 294 286 283 263 242 239 243 248 249 227 282 283 262 260 245 238 234 226
202 199 210 259 289 323 337 350 275 33 67 342 331 331 334 307 324 322 322 313 342 310 329 314 269 273 309 290 262 222 201 249 224 209 251 109 246 245 314 329 303 291 250 247 217
193 185 208 256 307 338 355 308 22 64 320 334 314 313 303 359 353 327 328 350 7 355 315 344 321 42 14 292 303 258 213 240 283 262 291 83 242 288 348 321 286 266 245 277 194
186 186 211 261 323 348 336 37 17 62 337 320 308 314 337 358 330 327 324 330 342 27 346 316 279 323 304 302 317 356 242 293 280 255 269 246 247 232 341 311 276 231 231 161 147
180 176 188 263 336 5 72 83 200 252 320 286 333 10 323 335 335 344 332 3 331 354 341 299 291 272 318 310 216 258 296 259 194 264 263 204 72 338 334 342 51 124 110 111 147
173 168 251 245 341 56 66 101 216 238 245 297 322 307 296 322 325 325 309 314 354 331 327 273 250 311 329 359 341 329 280 243 286 238 298 1 41 342 350 6 14 82 96 108 123
164 110 206 191 357 25 98 147 176 224 230 270 292 287 290 317 299 300 300 292 310 326 336 352 306 307 315 17 3 353 354 337 281 44 342 59 45 349 13 24 23 53 72 96 108
165 156 176 174 188 132 129 153 210 227 237 232 252 250 305 292 308 304 299 289 320 331 350 340 343 330 8 9 14 20 20 20 23 43 17 26 352 356 19 37 29 42 52 75 84
158 136 148 168 133 137 152 168 198 221 254 226 281 286 286 270 235 299 305 310 326 355 336 301 289 350 30 9 360 11 16 18 27 37 50 35 19 10 17 27 34 37 47 58 71
163 173 167 160 182 132 188 156 170 217 217 216 246 237 298 296 290 253 305 315 328 6 1 25 306 336 248 50 15 22 13 18 25 26 44 9 34 20 14 23 29 34 46 56 58
173 148 123 108 130 140 180 205 202 201 178 218 234 273 262 234 268 310 335 334 322 329 359 5 309 330 260 328 212 24 10 12 23 7 33 32 45 13 25 31 36 37 41 51 51
198 163 150 159 153 161 200 192 202 179 212 251 266 298 268 269 278 278 281 275 276 300 325 349 335 334 317 348 326 12 357 353 11 17 354 25 19 6 36 35 28 34 42 46 48
Wind_Speed_850mb
17 17 13 14 21 24 28 28 20 23 23 34 34 35 42 48 45 24 13 15 11 13 17 20 16 18 11 10 13 15 16 30 45 43 41 35 40 29 27 18 36 59 61 21 3
18 16 13 12 17 25 28 28 25 19 22 26 31 37 39 42 42 9 6 7 15 19 15 20 20 23 11 10 9 21 24 28 27 34 27 34 20 25 24 26 35 41 25 12 7
21 26 13 16 20 23 27 29 25 22 22 25 26 33 37 40 28 1 8 16 14 18 16 17 18 22 17 14 20 15 35 33 29 26 22 31 33 28 32 32 43 32 36 16 18
24 23 18 23 26 28 29 25 23 23 23 24 29 34 38 31 12 6 26 30 25 21 18 21 24 26 21 18 15 23 36 37 38 39 35 34 39 43 46 42 44 24 31 32 30
26 18 23 25 20 19 22 23 23 24 25 28 33 36 30 21 22 17 17 23 25 22 21 23 26 24 22 20 25 33 38 45 41 42 45 49 53 51 68 54 47 46 44 45 44
27 26 21 17 22 27 30 30 30 29 29 31 32 34 16 29 18 22 32 29 22 23 20 18 14 16 25 33 29 35 37 44 47 51 47 42 50 47 63 50 60 63 60 49 44
27 18 14 22 32 33 31 32 32 33 32 34 32 24 21 30 25 21 17 18 20 19 19 17 20 20 18 26 22 28 34 38 45 46 44 39 45 58 64 64 66 65 62 57 53
20 16 21 31 34 36 35 34 32 32 33 32 26 12 15 24 17 12 21 26 21 20 24 25 23 28 35 30 40 37 31 33 17 9 18 16 42 36 39 42 57 58 57 62 62
14 19 28 38 42 41 36 30 26 28 25 16 6 5 10 19 12 23 32 22 23 21 18 20 17 28 13 20 24 20 26 32 35 29 23 26 40 26 22 36 43 47 48 47 47
21 27 35 41 35 23 19 22 23 14 17 11 10 5 3 22 28 39 27 20 16 18 19 17 13 8 8 16 22 26 21 30 33 21 16 34 54 42 48 42 38 41 45 45 47
26 34 29 16 15 16 19 12 10 3 11 4 13 12 20 31 31 16 20 15 13 15 9 14 11 26 35 37 45 44 46 52 41 37 32 44 51 50 52 54 53 52 51 51 50
27 14 16 12 13 16 14 7 6 7 12 10 11 15 17 26 24 20 15 8 4 16 15 11 31 43 41 39 38 43 47 53 49 43 37 43 53 49 48 51 63 59 55 55 50
11 11 13 11 13 12 9 9 10 12 9 4 10 10 14 26 20 16 8 9 12 18 21 30 41 47 37 40 40 41 44 49 49 46 29 29 52 54 61 60 68 73 65 59 54
8 7 8 8 8 11 8 14 15 7 4 12 4 4 15 28 11 21 11 12 6 13 15 27 33 27 31 39 38 44 46 50 49 34 27 30 24 33 32 36 47 66 61 62 56
6 2 4 5 6 6 13 17 14 4 6 20 9 17 37 8 25 1 9 13 26 25 5 24 39 38 35 46 37 30 30 32 28 26 29 38 24 50 31 42 45 43 61 59 54
7 5 4 4 8 11 16 16 4 2 6 9 12 20 24 7 16 18 14 14 30 23 31 43 49 38 34 37 23 24 11 9 11 9 18 28 26 34 18 36 37 40 55 55 51
7 6 6 4 7 12 16 6 3 7 3 16 12 21 25 13 21 17 25 18 12 18 26 42 11 12 16 19 19 16 6 7 10 13 14 5 14 30 17 33 42 40 41 50 46
11 10 6 4 7 12 12 3 6 2 7 11 13 28 7 21 9 27 22 16 15 21 29 20 15 3 5 9 16 25 10 9 11 7 13 5 13 5 18 41 41 51 25 38 36
14 10 5 3 6 11 3 4 4 1 6 14 18 8 7 10 13 15 13 14 16 18 16 14 11 20 20 9 9 13 9 15 11 14 18 15 6 7 32 32 34 38 36 23 31
17 11 3 5 5 5 2 5 1 3 6 6 9 7 9 19 18 22 15 8 18 21 23 8 20 8 16 8 10 8 16 11 9 9 12 5 9 21 36 33 11 21 29 37 36
18 6 3 4 3 2 3 4 4 7 6 4 6 7 10 12 16 13 13 14 14 28 28 14 8 24 26 15 29 31 11 11 8 8 8 8 8 23 30 28 20 18 34 38 38
17 3 3 4 3 4 4 5 3 3 7 7 6 8 8 11 11 9 9 9 16 27 24 5 9 21 28 19 31 30 30 6 7 9 8 3 9 31 25 30 24 35 35 42 45
19 8 5 9 3 4 4 2 2 6 8 4 6 7 12 8 10 14 11 14 20 20 22 16 11 14 12 21 33 44 49 38 15 6 32 9 11 27 30 31 47 35 36 44 48
16 5 4 6 8 8 8 5 4 10 9 5 8 7 12 5 9 13 14 13 33 11 29 11 6 9 16 19 26 45 51 48 32 13 15 21 24 35 34 33 32 40 47 55 62
14 7 11 7 6 10 5 12 6 7 12 8 6 12 3 6 7 7 14 23 17 17 23 10 7 10 9 7 27 35 44 45 41 31 18 20 26 31 31 28 36 45 48 60 67
17 13 10 7 19 18 4 12 12 6 10 7 9 7 11 8 6 17 20 11 8 22 15 18 6 8 6 9 5 36 44 39 37 31 24 26 22 22 34 47 49 48 49 57 55
25 23 11 16 14 7 7 11 13 9 13 11 9 9 13 18 20 27 33 40 37 17 12 14 12 10 7 16 12 18 32 30 26 38 23 22 12 19 32 39 51 49 55 56 58
Wind_Direction_850mb
312 316 327 344 348 336 341 340 332 332 343 344 345 346 346 340 344 343 349 307 343 344 1 337 332 333 311 273 258 252 249 248 252 256 259 262 267 236 252 284 257 246 248 242 21
358 338 331 328 340 325 330 332 333 333 342 335 334 339 340 342 340 9 21 31 20 16 359 356 350 347 298 264 247 236 242 261 284 285 290 292 300 296 272 261 242 252 227 191 339
336 342 331 331 326 317 319 317 322 325 329 328 334 330 332 335 326 33 322 308 338 3 352 350 340 338 298 278 245 253 250 282 301 287 310 294 288 272 263 255 249 237 232 261 304
318 329 322 315 316 315 315 323 327 328 326 327 331 321 326 334 330 293 307 312 306 324 325 320 320 313 298 275 264 272 265 267 277 277 288 279 286 276 270 263 262 277 282 284 286
308 310 315 321 329 326 330 334 332 330 328 323 324 315 328 307 300 298 327 318 318 310 299 307 307 303 269 288 285 268 267 272 274 268 270 274 270 273 267 260 260 263 269 274 280
299 299 307 316 320 324 318 317 317 316 312 309 310 314 307 295 277 302 308 304 300 297 296 292 286 292 284 273 270 287 291 285 278 272 263 265 268 263 255 259 257 258 257 260 260
305 309 297 314 317 313 312 311 308 307 306 305 306 304 288 277 301 303 317 319 311 298 290 280 280 269 290 282 280 284 282 281 267 259 253 255 268 255 263 257 256 254 252 252 255
285 292 303 312 313 312 311 311 306 302 306 308 303 278 272 290 306 301 317 308 299 292 276 278 267 266 265 267 277 273 281 274 269 318 241 207 260 267 263 235 242 246 252 251 247
309 302 302 303 307 307 311 312 309 310 314 332 358 210 294 326 331 298 305 292 297 290 276 264 251 252 253 249 269 233 266 270 280 254 241 214 270 269 265 250 248 244 250 252 247
313 295 299 305 314 322 333 330 318 333 354 28 37 308 297 316 307 314 308 291 282 282 275 227 226 240 212 234 253 266 249 257 266 271 237 244 256 266 270 260 250 251 255 255 253
302 303 310 334 352 348 351 357 329 293 6 8 317 284 306 314 323 314 308 301 272 255 248 230 244 238 243 233 253 272 278 280 277 281 267 257 261 266 270 268 259 253 251 253 250
305 341 350 356 352 351 6 61 38 327 310 333 343 309 306 327 313 328 311 265 216 256 283 244 246 257 268 272 267 253 260 262 275 268 260 263 265 273 273 270 261 257 250 250 251
340 345 347 348 346 351 12 25 356 344 271 311 328 318 316 324 311 305 278 273 242 273 258 256 268 303 272 271 266 253 253 264 265 277 262 261 267 258 261 256 254 252 249 248 249
299 307 329 340 348 331 329 344 344 355 291 7 335 317 328 318 276 282 266 268 246 281 289 267 267 272 279 270 265 267 255 263 263 263 262 192 276 262 267 252 239 246 242 239 241
264 271 321 335 300 327 316 333 342 59 279 347 335 325 329 274 315 97 289 269 272 270 212 265 298 296 285 280 289 279 286 275 271 267 276 251 264 276 268 260 253 242 236 235 233
236 230 244 295 309 319 328 335 14 247 343 350 321 335 352 302 324 299 306 253 274 285 264 262 272 280 278 294 286 283 263 242 239 243 248 249 227 282 283 262 260 245 238 234 226
202 199 210 259 289 323 337 350 275 33 67 342 331 331 334 307 324 322 322 313 342 310 329 314 269 273 309 290 262 222 201 249 224 209 251 109 246 245 314 329 303 291 250 247 217
193 185 208 256 307 338 355 308 22 64 320 334 314 313 303 359 353 327 328 350 7 355 315 344 321 42 14 292 303 258 213 240 283 262 291 83 242 288 348 321 286 266 245 277 194
186 186 211 261 323 348 336 37 17 62 337 320 308 314 337 358 330 327 324 330 342 27 346 316 279 323 304 302 317 356 242 293 280 255 269 246 247 232 341 311 276 231 231 161 147
180 176 188 263 336 5 72 83 200 252 320 286 333 10 323 335 335 344 332 3 331 354 341 299 291 272 318 310 216 258 296 259 194 264 263 204 72 338 334 342 51 124 110 111 147
173 168 251 245 341 56 66 101 216 238 245 297 322 307 296 322 325 325 309 314 354 331 327 273 250 311 329 359 341 329 280 243 286 238 298 1 41 342 350 6 14 82 96 108 123
164 110 206 191 357 25 98 147 176 224 230 270 292 287 290 317 299 300 300 292 310 326 336 352 306 307 315 17 3 353 354 337 281 44 342 59 45 349 13 24 23 53 72 96 108
165 156 176 174 188 132 129 153 210 227 237 232 252 250 305 292 308 304 299 289 320 331 350 340 343 330 8 9 14 20 20 20 23 43 17 26 352 356 19 37 29 42 52 75 84
158 136 148 168 133 137 152 168 198 221 254 226 281 286 286 270 235 299 305 310 326 355 336 301 289 350 30 9 360 11 16 18 27 37 50 35 19 10 17 27 34 37 47 58 71
163 173 167 160 182 132 188 156 170 217 217 216 246 237 298 296 290 253 305 315 328 6 1 25 306 336 248 50 15 22 13 18 25 26 44 9 34 20 14 23 29 34 46 56 58
173 148 123 108 130 140 180 205 202 201 178 218 234 273 262 234 268 310 335 334 322 329 359 5 309 330 260 328 212 24 10 12 23 7 33 32 45 13 25 31 36 37 41 51 51
198 163 150 159 153 161 200 192 202 179 212 251 266 298 268 269 278 278 281 275 276 300 325 349 335 334 317 348 326 12 357 353 11 17 354 25 19 6 36 35 28 34 42 46 48